sat.trackr.live / text

‹ back to catalog

STARLINK-36961

NORAD 68900 · 2026-097F

PAYLOAD ACTIVE UNKNOWN

§ Identity

Operator
Country
US
Launch date
2026-04-30
Launch site
AFWTR
Launch vehicle
Mass (kg)
RCS (m²)

Purposes: comms

External: N2YO · Heavens-Above · Gunter

§ Orbital elements

Epoch: 2026-05-25T01:44:51.133056Z

Period
92.95 min
Inclination
97.2843°
Eccentricity
0.0002370
Mean motion
15.49212352 rev/d
Perigee alt
417.4 km
Apogee alt
420.6 km
Semi-major
6,797.2 km
B*
5.6894e-4
RAAN
340.7600°
Arg perigee
88.2965°
Mean anomaly
271.8558°
Rev number
393

§ Raw data

STARLINK-369611 68900U 26097F   26145.07281404  .00031002  00000+0  56894-3 0  99912 68900  97.2843 340.7600 0002370  88.2965 271.8558 15.49212352  3933

JSON: /api/v1/satellites/68900 · /tle

For live sub-satellite position, see the globe view (requires WebGL).

§ Visibility from observer

Set your observer location to see the next 7 days of passes ≥ 10°. The values pass through the URL so the page stays shareable.

No JS? Fill the form by hand. The geolocation button needs JavaScript.